STARLINK-11311, 61253

Orbit data source: Space-Track

STARLINK-11311, 61253 is a payload satellite owned by SpaceX/Seattle (US) in LEO that was launched on Wed, 25 Sep 2024 UTC via an FALCON 9 launch vehicle from the Air Force Western Test Range (AFWTR). Payloads include a variety of satellites, spacecraft, and rockets equipped with specific instruments for various scientific and technological missions. These include communications satellites like Starlink; space stations such as the ISS; scientific satellites like the Hubble; Earth observation satellites from companies like Planet Labs, Umbra, and HawkEye 360; GPS; miniature CubeSats for education and research; and military/defense satellites.

Loading next visibility...
STARLINK-11311 details
Identifier
61253, 2024-175L
Orbit
LEO
Last TLE update23 hours ago
Origin
Flag of USSpaceX/Seattle (US)
ManufacturerSpaceX/Seattle
MissionOperational spacecraft
Bus & MotorSTARLINK V2M, Unknown motor
Mass730 kg wet, ~700 kg dry
Launch date (UTC)
2024-09-25 (3 months ago)
Launch vehicle
FALCON 9
Launch site
Air Force Western Test Range (AFWTR)
Object type
Payload
Rocket body
Debris
Shape & HBRUnknown
Radar Cross SectionLarge (>1 m²)

Expand to show TLE details & history

TLE from 23 hours ago
0 STARLINK-11311
1 61253U 24175L   24355.53115791  .00002034  00000-0  21646-4 0  9999
2 61253  53.1586  86.0034 0001713 111.5408 248.5792 15.69716020 14751
Epoch: 2024-12-20T12:44Z
Definitive object data (Epoch: 2024-12-20T12:44:52.043Z)
Latitude-0.00007°
Longitude165.19117°
Altitude361.046 km
Speed7.694 km/s
True Right ascension05h 44m 00s
True Declination0° 00' 00"
Sunlit
Object was in full shadow at TLE epoch
Visualization TLE readout
Latitude37.4765°
Longitude-164.72815°
Altitude362.276 km
Speed7.697 km/s
Apparent Right ascension03h 42m 27s
Apparent Declination0° 07' 31"
Sunlit
Object is in full shadow
Visualization observer readout
Local Sidereal Time10:54:21
Azimuth281.854° WNW
Elevation-13.606°
Doppler factor1
Orbital elements
Apogee altitude361.125 km
Perigee altitude358.816 km
Semi-major axis6,738.107 km
Eccentricity0.0001713
Inclination53.1586°
RAAN86.0034°
Arg. of periapsis111.5408°
True anomaly248.56093°
Mean anomaly248.5792°
Eccentric anomaly248.57006°
Mean motion3.92407 °/min
BSTAR0.000021646
Orbital period91.74 mins
Loading maneuver chart data...
Loading historical data...
Loading historical data...
Loading historical data...
Loading historical data...
Loading historical data...
Loading historical data...
Loading historical data...

STARLINK-11311 Visibility forecast

Observer location: undefined°, undefined

Span
Click to sort rows by Start time (UTC) header in descending order
Start Az.
Max El. time (UTC)
Max El. Az.
Max El.
End time (UTC)
End Az.
4 mins2024-12-21 15:12:38.602Z330.49° NNW2024-12-21 15:14:38.602Z41.013° NE32.824°2024-12-21 15:16:38.602Z102.019° ESE
|